Regional Weather Roundup
Issued by NWS Charleston, SC

Current Version | Previous Version | Graphics & Text | Print | Product List | Glossary On
Versions: 1 2 3 4 5 6 7 8 9 10 11 12 13 14 15 16 17 18 19 20 21 22 23 24 25 26 27 28 29 30 31 32 33 34 35 36 37 38 39 40 41 42 43 44 45 46 47 48 49 50
000
ASUS42 KCHS 300128
RWRCHS

REGIONAL WEATHER ROUNDUP
NATIONAL WEATHER SERVICE CHARLESTON SC
900 PM EDT FRI APR 29 2016

NOTE: "FAIR" INDICATES FEW OR NO CLOUDS BELOW 12,000 FEET WITH NO
SIGNIFICANT WEATHER AND/OR OBSTRUCTIONS TO VISIBILITY.

NOT ALL STATIONS ARE QUALITY CONTROLLED. USE DATA WITH CAUTION...
ESPECIALLY DEWPOINT OBSERVATIONS.

SCZ027-030-031-034>040-042>050-300200-
...SOUTHEAST SOUTH CAROLINA...

CITY           SKY/WX    TMP DP  RH WIND       PRES   REMARKS
N CHARLESTON   PTCLDY    71  67  87 SE8       29.97R
WATERFRONT PRK   N/A     72  70  93 SE7       29.95R
MOUNT PLEASANT FAIR      70  68  94 CALM      29.99R FOG
JOHNS ISLAND   FAIR      70  70 100 SE3       29.99R FOG
PINOPOLIS        N/A     75  66  73 VRB3      29.87R
MONCKS CORNER  FAIR      70  63  78 S5        29.98R
SUMMERVILLE    FAIR      72  64  78 CALM      29.99R
BEAUFORT MCAS  CLEAR     73  68  84 SE6       29.98R
BEAUFORT ARPT  FAIR      72  66  83 CALM      29.98R
HILTON HEAD IS CLEAR     72  70  94 CALM      30.00R
WALTERBORO     CLEAR     73  64  73 SE5       29.99R
ALLENDALE      FAIR      77  59  53 SE3       29.97R

...SOUTHERN MIDLANDS AND PEE DEE...

CITY           SKY/WX    TMP DP  RH WIND       PRES   REMARKS
GEORGETOWN     FAIR      66  64  94 CALM      30.00R
KINGSTREE      FAIR      72  64  78 SE8       29.98R
ORANGEBURG     CLEAR     77  63  61 SE5       29.96R
BARNWELL       FAIR      79  66  65 CALM      29.97R
AIKEN          FAIR      75  55  50 CALM      30.00R
MANNING        NOT AVBL
COLUMBIA       PTCLDY    81  54  39 CALM      29.94R
SUMTER         CLEAR     78  64  61 S2        29.94R
FLORENCE       PTCLDY    76  65  68 S9        29.96R
MYRTLE BEACH   PTCLDY    70  61  73 S7        29.99
N MYRTLE BEACH CLEAR     69  64  84 S5        29.97R

$$

GAZ063-065-086>088-099>101-113>116-118-119-134>141-150-300200-
...SOUTHEAST GEORGIA...

CITY           SKY/WX    TMP DP  RH WIND       PRES   REMARKS
SAVANNAH ARPT  PTCLDY    77  59  53 S5        29.97R
HUNTER AAF     PTCLDY    75  68  78 CALM      29.94R
FORT STEWART   CLEAR     76  61  59 CALM      29.94R
STATESBORO     CLEAR     81  65  59 SE3       29.97R
SYLVANIA       CLOUDY    76  65  68 CALM      29.98R
CLAXTON        FAIR      76  66  71 E3        29.96R

...CSRA...CENTRAL AND FAR SOUTHEAST GEORGIA...

CITY           SKY/WX    TMP DP  RH WIND       PRES   REMARKS
THOMSON        PTCLDY    72  68  88 CALM      30.00S
AUGUSTA-BUSH   PTCLDY    72  65  78 CALM      29.94R
AUGUSTA-DANIEL CLOUDY    83  55  38 N5        29.96R
SWAINSBORO     FAIR      73  66  78 CALM      29.97R
VIDALIA        CLEAR     77  59  53 CALM      29.96R
EASTMAN        FAIR      74  65  74 CALM      29.98R
HAZLEHURST     FAIR      76  63  64 E3        29.94R
ALMA           CLEAR     73  68  84 CALM      29.94R
WAYCROSS       CLEAR     75  68  78 CALM      29.95R
JESUP          FAIR      77  68  73 CALM      29.96R
BAXLEY         FAIR      75  66  73 CALM      29.95R
BRUNSWICK      CLEAR     81  73  78 SE3       29.97R
SAINT SIMONS   CLEAR     75  72  90 SE7       29.95R

$$

SCZ027-028-034-036>038-045-046-048>050-GAZ119-141-300200-
...LAKE AND SUPPLEMENTAL COASTAL OBSERVATIONS...

STATION/POSITION TIME  TEMP    WIND        PRES    WAVE   SWELL
                       AIR SEA DIR/SP/G            HT/PER HT/PER/DIR
                 (UTC) (F)     (DEG/KT/KT) (MB)    (FT/S) (FT/S/D)
WINYAH BAY       0000   71     130/  6     1014.0
LAKE MURRAY      0000   79        CALM     1013.2
ACE BASIN NERRS  0045   72        CALM     1015.0R
FORT PULASKI     0100   74 73              1015.2R
SAPELO ISLAND    0100   74     120/  2     1014.0S

$$

ANZ835-935-AMZ111-154-330-350-352-354-370-450-454-472-300200-
...C-MAN AND BUOY OBSERVATIONS...

STATION/POSITION TIME  TEMP    WIND        PRES    WAVE   SWELL
                       AIR SEA DIR/SP/G            HT/PER HT/PER/DIR
                 (UTC) (F)     (DEG/KT/KT) (MB)    (FT/S) (FT/S/D)
BUOY 41004       0050   73 72  120/  8/ 10 1014.2R   2/11   2/11
BUOY 41008       NOT AVBL
FOLLY BEACH CMAN 0100   71     120/  6/  7 1015.3R
CAPERS NEARSHORE 0108   71 71  130/  4/  6 1015.1R
FRIPP NEARSHORE  0008   73 74  120/  8/ 12 1013.6R


STATION/POSITION TIME  TEMP    WIND        PRES    WAVE   SWELL
                       AIR SEA DIR/SP/G            HT/PER HT/PER/DIR
                 (UTC) (F)     (DEG/KT/KT) (MB)    (FT/S) (FT/S/D)
5E ST. MARYS GA  0021      74                N/A     1/11
FRYING PAN BUOY  0000   69 70   70/  8/ 10 1014.5R
BUOY 41025       0050   61 74   20/ 19/ 23 1015.3R   5/ 5   2/ 80/10
CAPE LOOKOUT NC  0100   66     360/  8/  9 1015.4R
BUOY 41002       0050   71 71  270/  6/  8 1014.6R   3/ 6   3/270/ 6
BUOY 41010       0020   77 77  200/  2/  4 1015.0R
ST AUGUSTINE FL  0100   73 74  160/  7/  7 1015.2R


$$




USA.gov is the U.S. government's official web portal to all federal, state and local government web resources and services.